User: anonymous   Login
Location: Unspecified
(52.4361°N, 0.0000°E)
Time: 17:08:35
(UTC+00:00)
Language:

DOVE 4 - Orbit

View from above orbital plane
View from above orbital plane
View from above satellite
View from above satellite

Ground track
Ground track

The orbit data is extracted from the following two-line orbital elements,

1 39430U 13066Q   19200.54758827  .00000088  00000-0  24660-4 0  9991
2 39430  97.7494 155.0719 0151423 156.4934 204.3269 14.59261349301102
Epoch (UTC): 19 July 2019 13:08:31
Eccentricity: 0.0151423
inclination: 97.7494°
perigee height: 588 km
apogee height: 802 km
right ascension of ascending node: 155.0719°
argument of perigee: 156.4934°
revolutions per day: 14.59261349
mean anomaly at epoch: 204.3269°
orbit number at epoch: 30110

The dashed part of the orbit path shows where the satellite is in the earth's shadow,  

DLR